Superheroes vs Villains 2017

# of participants: 310# of finishers: 243last updated: 10/7/2017 8:08 pm
Result Questions?
Award Bib First Name Last Name Elapsed Time Pace Category 5K Rank Gender Gen Rank Age Age Group AG Rank Youtube
2239 TAMMI DELENA 21:14 6:50/mile 5K 1 F 1 44 40-44 1
3920 ADDISON TILLEY 21:23 6:53/mile 5K 2 F 2 11 11-14 1 View Video
2061 DAVID GREEN 21:46 7:00/mile 5K 3 M 1 23 20-24 1 View Video
221 ALEXANDER ALBANO 22:29 7:14/mile 5K 4 M 2 9 1-10 1 View Video
222 CHRIS ALBANO 22:36 7:16/mile 5K 5 M 3 39 35-39 1 View Video
3764 CJ HUDSON 23:19 7:30/mile 5K 6 M 4 39 35-39 2 View Video
2162 JAIMESON GAMBLE 23:27 7:32/mile 5K 7 M 5 25 25-29 1 View Video
223 DEDRIC JACKSON 23:50 7:40/mile 5K 8 M 6 43 40-44 1 View Video
218 TAYLOR CUSHENBERRY 24:00 7:43/mile 5K 9 F 3 13 11-14 2 View Video
2140 STEPHEN STROUD 24:15 7:48/mile 5K 10 M 7 34 30-34 1 View Video
5022 MADELYN GAHAN 24:20 7:49/mile 5K 11 F 4 36 35-39 1 View Video
220 ZACH CAMPANILE 25:38 8:15/mile 5K 12 M 8 25 25-29 2 View Video
5146 TAYLOR MUMFORD 25:42 8:16/mile 5K 13 M 9 28 25-29 3 View Video
2241 CHRISTOPHER DENTE 25:42 8:16/mile 5K 14 M 10 46 45-49 1 View Video
2151 JAIME WHITE 26:03 8:23/mile 5K 15 F 5 35 35-39 2 View Video
2070 PAMELA HATFIELD 26:04 8:23/mile 5K 16 F 6 28 25-29 1 View Video
2005 BETH ARNDT 26:23 8:29/mile 5K 17 F 7 30 30-34 1 View Video
2002 LANDO ALEXANDER 26:23 8:29/mile 5K 18 M 11 30 30-34 2 View Video
2003 CONNIE ALLEN 26:23 8:29/mile 5K 19 F 8 38 35-39 3 View Video
2177 NANEA TRASK 26:24 8:29/mile 5K 20 F 9 10 1-10 1 View Video
2176 JANA TRASK 26:24 8:30/mile 5K 21 F 10 45 45-49 1 View Video
2165 MELISSA HUFF 26:30 8:31/mile 5K 22 F 11 46 45-49 2 View Video
2143 DARA TOOLE 26:30 8:32/mile 5K 23 F 12 42 40-44 2 View Video
2106 DELLA MCDONOUGH 26:53 8:39/mile 5K 24 F 13 52 50-54 1 View Video
2103 BRENDAN MAUDE 27:02 8:42/mile 5K 25 M 12 9 1-10 2 View Video
2183 GREG MITCHELL 27:03 8:42/mile 5K 26 M 13 37 35-39 3 View Video
2067 NINA HARRIS 27:04 8:42/mile 5K 27 F 14 13 11-14 3 View Video
2076 WILLIAM IBARRONDO 27:06 8:43/mile 5K 28 M 14 48 45-49 2 View Video
3921 ASHLEY THURMAN-MCGRAW 27:49 8:57/mile 5K 29 F 15 40 40-44 3 View Video
2104 JENNIFER MAUDE 28:00 9:00/mile 5K 30 F 16 43 40-44 4 View Video
2042 CHRISTOPHER FLOWERS 28:06 9:02/mile 5K 31 M 15 42 40-44 2 View Video
211 AJ PORTER 28:57 9:19/mile 5K 32 M 16 13 11-14 1 View Video
5011 TATIANA FERNANDEZ 29:15 9:24/mile 5K 33 F 17 48 45-49 3 View Video
2110 CYNTHIA MIMS 29:29 9:29/mile 5K 34 F 18 25 25-29 2 View Video
5141 KIMBERLY PARKER 29:39 9:32/mile 5K 35 F 19 45 45-49 4 View Video
2173 ALISHA RICHEY 30:41 9:52/mile 5K 36 F 20 36 35-39 4 View Video
5042 ASHLEY JOINER 30:47 9:54/mile 5K 37 F 21 34 30-34 2 View Video
2062 ALBERT HALLMARK 30:51 9:55/mile 5K 38 M 17 70 60-98 1 View Video
2188 CAROLYN SALVADOR 31:38 10:10/mile 5K 39 F 22 52 50-54 2 View Video
2078 HENRY JANUS 31:43 10:12/mile 5K 40 M 18 13 11-14 2 View Video
2079 SARRAH JANUS 31:46 10:13/mile 5K 41 F 23 40 40-44 5 View Video
2015 CASSANDRA CELESTE 31:47 10:14/mile 5K 42 F 24 32 30-34 3 View Video
2133 JAMI SMITH 32:00 10:18/mile 5K 43 F 25 39 35-39 5 View Video
2190 KATHY OTIS 32:11 10:21/mile 5K 44 F 26 48 45-49 5 View Video
2047 MARNA FRIEDMAN 32:12 10:22/mile 5K 45 F 27 50 50-54 3 View Video
2046 DAVID FRIEDMAN 32:13 10:22/mile 5K 46 M 19 53 50-54 1 View Video
2155 DOMINIQUE BOONACKER 32:23 10:25/mile 5K 47 F 28 26 25-29 3 View Video
2228 ERYNN MOZIER 32:32 10:28/mile 5K 48 F 29 47 45-49 6 View Video
2150 MICHAEL WARNER 32:39 10:30/mile 5K 49 M 20 55 55-59 1 View Video
2052 BRANDI GILBERT 32:50 10:34/mile 5K 50 F 30 33 30-34 4 View Video
2098 TIM LOWE 32:58 10:36/mile 5K 51 M 21 37 35-39 4 View Video
217 DEBBY HYBART 32:59 10:37/mile 5K 52 F 31 51 50-54 4 View Video
2069 LUKE HARTMAN 33:01 10:37/mile 5K 53 M 22 9 1-10 3 View Video
2068 CRISTINA HARTMAN 33:03 10:38/mile 5K 54 F 32 39 35-39 6 View Video
2145 CADENCE TYLER 33:03 10:38/mile 5K 55 F 33 13 11-14 4 View Video
2137 LAUREN SPIVEY 33:05 10:39/mile 5K 56 F 34 14 11-14 5 View Video
2191 BETHANY GEORGE 33:09 10:40/mile 5K 57 F 35 45 45-49 7 View Video
2117 KIM PALMER 33:11 10:40/mile 5K 58 F 36 54 50-54 5 View Video
2059 RUDY GLEASON 33:17 10:42/mile 5K 59 M 23 45 45-49 3 View Video
2058 RUDOLPH GLEASON 33:17 10:42/mile 5K 60 M 24 11 11-14 3 View Video
2026 CYNDI DRAGU 33:19 10:43/mile 5K 61 F 37 34 30-34 5 View Video
2136 KRISTA SPIVEY 33:27 10:46/mile 5K 62 F 38 44 40-44 6 View Video
216 ESTON CHATTERJEE 33:32 10:47/mile 5K 63 M 25 9 1-10 4 View Video
2044 ANGELA FRANKS 33:33 10:48/mile 5K 64 F 39 48 45-49 8 View Video
2016 ANKUR CHATTERJEE 33:33 10:48/mile 5K 65 M 26 37 35-39 5 View Video
2126 DANIELLE ROUSSEAU 33:42 10:50/mile 5K 66 F 40 23 20-24 1 View Video
2071 DONNA HERBST 33:48 10:52/mile 5K 67 F 41 56 55-59 1 View Video
2116 ANAMARIA OSPINA-GREENBERGER 33:56 10:55/mile 5K 68 F 42 47 45-49 9 View Video
3919 DANIELLE ZEMBER 34:13 11:00/mile 5K 69 F 43 12 11-14 6 View Video
2153 MYNDI YATES 34:21 11:03/mile 5K 70 F 44 42 40-44 7 View Video
2100 KATE LUCKETT 34:22 11:03/mile 5K 71 F 45 12 11-14 7 View Video
2189 JOHN SALVADOR 34:32 11:07/mile 5K 72 M 27 52 50-54 2 View Video
5119 AVERY MAGATO 34:39 11:09/mile 5K 73 F 46 10 1-10 2 View Video
5126 BETSY MAGATO 34:39 11:09/mile 5K 74 F 47 41 40-44 8 View Video
2192 SHEENA VIRJI 35:24 11:23/mile 5K 75 F 48 41 40-44 9 View Video
2099 JOHN LUCKETT 35:30 11:25/mile 5K 76 M 28 56 55-59 2 View Video
2138 VALERIE STAFFEY 35:32 11:26/mile 5K 77 F 49 36 35-39 7 View Video
2101 CARLY LYON 35:33 11:26/mile 5K 78 F 50 36 35-39 8 View Video
3935 LAILA NIXON 35:47 11:31/mile 5K 79 F 51 10 1-10 3 View Video
3880 ALEGRIA NIXON 35:52 11:32/mile 5K 80 F 52 40 40-44 10 View Video
2085 MAYA JENSEN 36:00 11:35/mile 5K 81 F 53 12 11-14 8 View Video
3735 THERON NIXON 36:02 11:35/mile 5K 82 M 29 13 11-14 4 View Video
5124 JOE PRICKETT 36:02 11:35/mile 5K 83 M 30 45 45-49 4 View Video
2082 MASON JENKINS 36:08 36:08/mile Superheroes in Training 1 M 1 2 View Video
2080 MANDY JENKINS 36:09 11:38/mile 5K 84 F 54 38 35-39 9 View Video
2081 MARK JENKINS 36:09 11:38/mile 5K 85 M 31 39 35-39 6 View Video
2244 IAN HANSON 36:14 11:39/mile 5K 86 M 32 11 11-14 5 View Video
2245 WENDY HANSON 36:14 11:39/mile 5K 87 F 55 45 45-49 10 View Video
2149 JENNIFER WARNER 36:23 11:42/mile 5K 88 F 56 41 40-44 11 View Video
2025 MEAGAN DOUGHTY 36:24 11:43/mile 5K 89 F 57 25 25-29 4 View Video
2142 STACY THOMPSON 36:28 11:44/mile 5K 90 F 58 44 40-44 12 View Video
2060 DONNA GORDON 36:31 11:45/mile 5K 91 F 59 25 25-29 5 View Video
3922 JENNIFER SAMPSON 36:45 11:49/mile 5K 92 F 60 36 35-39 10 View Video
2049 ALYSSA GIBSON 36:49 11:51/mile 5K 93 F 61 25 25-29 6 View Video
2147 CHRISSY WALKER 36:49 11:51/mile 5K 94 F 62 19 15-19 1 View Video
2175 ASHAKI ROBBINS 37:05 11:56/mile 5K 95 F 63 39 35-39 11 View Video
2152 KINETA WILSON 37:06 11:56/mile 5K 96 F 64 31 30-34 6 View Video
2013 CHLOE BUCHAN 37:14 11:59/mile 5K 97 F 65 13 11-14 9 View Video
2115 DEVON NEWSOME 37:41 12:07/mile 5K 98 F 66 24 20-24 2 View Video
2201 JULIAN IZYDORE 37:44 12:08/mile 5K 99 M 33 65 60-98 2 View Video